Location: Gwatt
(46.7204°N, 7.6223°E)
Time: 01:29:24
(UTC+00:00)

Transit 2A - Pass Details

Date: 27 January 2021
Orbit: 601 x 958 km, 66.7° (Epoch: 07 March)

Event Time Altitude Azimuth Distance (km) Brightness Sun altitude
Rises 09:26:51 0° 332° (NNW) 3,076 8.5 18.1°
Reaches altitude 10° 09:29:59 10° 352° (N) 2,092 7.8 18.4°
Maximum altitude 09:33:09 18° 34° (NE) 1,591 7.5 18.7°
Drops below altitude 10° 09:36:10 10° 77° (ENE) 1,990 8.5 19.0°
Sets 09:39:02 0° 98° (E) 2,864 9.5 19.2°
